Regional Weather Roundup
Issued by NWS

Home | Current Version | Previous Version | Graphics & Text | Print | Product List | Glossary On
Versions: 1 2 3 4 5 6 7 8 9 10 11 12 13 14 15 16 17 18 19 20 21 22 23 24 25 26 27 28
000
ASUS45 KBOI 280410
RWRID

IDAHO REGIONAL WEATHER ROUNDUP
NATIONAL WEATHER SERVICE BOISE ID
1000 PM MDT WED APR 27 2016

NOTE: "FAIR" INDICATES FEW OR NO CLOUDS BELOW 12000 FEET
WITH NO SIGNIFICANT WEATHER AND/OR OBSTRUCTIONS TO VISIBILITY

IDZ012-014-280500-
SOUTHWEST IDAHO


CITY           SKY/WX    TMP DP  RH WIND       PRES   REMARKS
BOISE          CLOUDY    54  37  52 NW9       29.78S
CALDWELL       CLOUDY    53  41  63 NW7       29.80R
MOUNTAIN HOME  CLOUDY    53  38  58 NW12      29.77S
$$

IDZ016-017-280500-
SOUTHCENTRAL IDAHO


CITY           SKY/WX    TMP DP  RH WIND       PRES   REMARKS
BURLEY         MOCLDY    45  39  79 SW8       29.78R
JEROME         MOCLDY    46  41  82 S7        29.79R
TWIN FALLS     MOCLDY    44  40  85 S13       29.78S
$$

IDZ019>023-280500-
SOUTHEAST IDAHO


CITY           SKY/WX    TMP DP  RH WIND       PRES   REMARKS
IDAHO FALLS    CLOUDY    47  26  44 N16       29.81R
POCATELLO      PTCLDY    47  38  71 SW7       29.79R
REXBURG        CLEAR     44  27  51 N8        29.82R
$$

IDZ006-010-011-018-031-032-280500-
CENTRAL IDAHO MOUNTAINS


CITY           SKY/WX    TMP DP  RH WIND       PRES   REMARKS
MCCALL         CLOUDY    42  37  82 N13       29.83S
HAILEY         MOCLDY    45  37  76 W9        29.81R
STANLEY          N/A     35  32  88 CALM      29.85S
SALMON         CLOUDY    50  28  43 SE8       29.82R
CHALLIS        CLOUDY    48  33  56 W6        29.80R
$$

IDZ002-004-006-007-026-280500-
NORTHERN IDAHO


CITY           SKY/WX    TMP DP  RH WIND       PRES   REMARKS
LEWISTON       MOCLDY    56  38  50 W7        29.89R
LOWELL           N/A     51  46  83 N3        29.87R
COEUR D`ALENE  PTCLDY    54  41  62 NE8       29.87R
MULLAN PASS    MOCLDY    37  30  75 VRB5      29.93R WCI  33
$$




USA.gov is the U.S. government's official web portal to all federal, state and local government web resources and services.